Regional Weather Roundup
Issued by NWS Austin/San Antonio, TX

Home | Current Version | Previous Version | Text Only | Print | Product List | Glossary On
Versions: 1 2 3 4 5 6 7 8 9 10 11 12 13 14 15 16 17 18 19 20 21 22 23 24 25 26 27 28 29 30 31 32 33 34 35 36 37 38 39 40 41 42 43 44 45 46 47 48 49 50
660
ASUS44 KEWX 160211
RWREWX
SOUTH TEXAS REGIONAL WEATHER ROUNDUP
NATIONAL WEATHER SERVICE AUSTIN/SAN ANTONIO TX
900 PM CDT TUE OCT 15 2019

NOTE: "FAIR" INDICATED FEW OR NO CLOUDS BELOW 12,000 FEET WITH NO
SIGNIFICANT WEATHER AND/OR OBSTRUCTIONS TO VISIBILITY.

* - THESE STATIONS ARE NOT NWS OR FAA STATIONS...AND ARE NOT SUBJECT
    TO NWS AND FAA QUALITY CONTROL.

TXZ171-172-183>190-160300-
TEXAS HILL COUNTRY AND EDWARDS PLATEAU

CITY           SKY/WX    TMP DP  RH WIND       PRES   REMARKS
JUNCTION       CLEAR     71  69  93 CALM      29.95R
*LLANO         CLEAR     75  70  83 CALM      29.94R
BURNET         CLEAR     74  65  73 W3        29.93R
*HORSESHOE BAY CLEAR     75  72  88 CALM      29.91R
*KERRVILLE     PTCLDY    73  67  83 CALM      29.93R
*FREDERICKSBRG PTCLDY    75  64  70 S3        29.94R
*ROCKSPRINGS   MOCLDY    73  61  64 NW5       30.01R
*BOERNE          N/A    N/A N/A N/A MISG        N/A
*CASTROVILLE   CLOUDY    81  64  55 N17       29.91R
HONDO          MOCLDY    78  64  61 N20       29.91R THUNDER
*UVALDE        PTCLDY    75  69  81 E14       29.90R
DEL RIO        CLEAR     84  63  49 N8        29.88R
LAUGHLIN AFB   PTCLDY    82  62  50 NE8       29.90R
SPOFFORD       MOCLDY    79  68  67 E9        29.84R
*EAGLE PASS    PTCLDY    86  64  48 NE5       29.87R
CARRIZO SPRGS  MOCLDY    86  63  45 E3        29.83R
*FAITH RANCH   MOCLDY    86  63  45 NE6       29.84R
$$

TXZ173-191>194-202-209-217>225-228-160300-
CENTRAL AND SOUTH CENTRAL TEXAS

CITY           SKY/WX    TMP DP  RH WIND       PRES   REMARKS
GEORGETOWN     CLEAR     75  67  76 NW5       29.90R
AUSTIN/BERGSTM MOCLDY    76  73  91 SW3       29.86R
AUSTIN/MABRY   PTCLDY    75  72  90 CALM      29.89R
*AUSTIN/EXEC   PTCLDY    75  72  88 CALM      29.88R
*LAGO VISTA    CLEAR     74  70  88 W3        29.91R
SAN MARCOS     PTCLDY    75  71  87 W8        29.89R
NEW BRAUNFELS  MOCLDY    75  70  84 NW10      29.87R
RANDOLPH AFB   CLOUDY    79  66  65 W16       29.89R
SEGUIN         MOCLDY    77  68  72 E3        29.91R
KELLY FIELD    MOCLDY    81  66  59 N9        29.88R
SAN ANTONIO    MOCLDY    77  67  71 N18       29.90R THUNDER
STINSON FIELD  CLOUDY    81  66  60 N12       29.86R
PLEASANTON     CLOUDY    83  64  52 NE8       29.89R
*LA GRANGE     MOCLDY    84  74  70 NW5       29.85R HX  91
*GIDDINGS      PTCLDY    78  77  96 CALM      29.86F
*GONZALES      CLOUDY    84  71  64 W6        29.87R
$$

TXZ163>164-176>182-195>201-210>213-226-227-235-160300-
SOUTHEAST TEXAS

CITY           SKY/WX    TMP DP  RH WIND       PRES   REMARKS
COLLEGE STN    LGT RAIN  79  75  87 E6        29.85S
*BRYAN         LGT RAIN  78  78 100 CALM      29.89R
*CALDWELL      LGT RAIN  78  76  92 CALM      29.87R
*CROCKETT      CLEAR     73  73 100 CALM      29.89S
*BRENHAM       LGT RAIN  79  73  83 CALM      29.86F
HUNTSVILLE     PTCLDY    75  73  93 CALM      29.88R
CONROE         MOCLDY    76  73  91 CALM      29.89R
HOUSTON BUSH   PTCLDY    80  71  74 NE6       29.87R
HOUSTON HOBBY  FAIR      81  73  76 S8        29.87R
*HOUSTON SW AP FAIR      77  74  91 CALM      29.88R
PEARLAND       FAIR      80  73  79 S5        29.88R
HOUSTON HOOKS  FAIR      78  71  79 E6        29.87R
ELLINGTON FLD  PTCLDY    79  72  78 S5        29.86R
SUGAR LAND     FAIR      81  74  79 S8        29.87R
*HOUSTON EXEC  FAIR      81  73  78 S7        29.88R
*CLEVELAND MUN FAIR      75  75 100 CALM      29.89R
*WHARTON       CLEAR     78  71  79 S6        29.88R
*COLUMBUS      FAIR      78  68  70 S6        29.87S
*EAGLE LAKE    CLEAR     82  74  77 S7        29.87
$$

TXZ214>216-236>238-160300-
THE UPPER TEXAS COAST

CITY           SKY/WX    TMP DP  RH WIND       PRES   REMARKS
*ORANGE        FAIR      77  74  92 CALM      29.90F
PORT ARTHUR    CLOUDY    80  75  84 N3        29.89R
GALVESTON      FAIR      82  78  88 S8        29.88R HX  91
ANGLETON       FAIR      77  74  90 S6        29.88R
*BAY CITY      CLEAR     79  77  95 CALM      29.88R
PALACIOS       CLEAR     80  74  81 S8        29.86S
$$

TXZ229>234-239>247-160300-
TEXAS COASTAL BEND AND RIO GRANDE PLAINS

CITY           SKY/WX    TMP DP  RH WIND       PRES   REMARKS
VICTORIA       CLEAR     80  74  81 S8        29.86R
*BEEVILLE      CLEAR     83  75  76 SE8       29.85S HX  90
ROCKPORT       CLEAR     82  76  81 S8        29.85R
*PORT ARANSAS  CLEAR     82  77  87 SE9       29.87R HX  90
*PORT LAVACA   CLEAR     81  76  84 S6        29.86S
*INGLESIDE     CLEAR     81  77  88 S8        29.86R
CORPUS CHRISTI PTCLDY    82  76  81 SE12      29.86R
CORPUS NAS     PTCLDY    81  79  94 SE12      29.86R HX  90
*ROBSTOWN      CLEAR     82  74  79 SE10      29.86R
ALICE          CLEAR     81  75  82 SE10      29.85R
KINGSVILLE NAS PTCLDY    81  76  84 SE9       29.85R
COTULLA        MOCLDY    91  63  39 E9        29.84R HX  92
LAREDO         CLEAR     90  66  45 SE8       29.82R HX  92
$$

TXZ248>255-160300-
DEEP SOUTH TEXAS

CITY           SKY/WX    TMP DP  RH WIND       PRES   REMARKS
BROWNSVILLE    FAIR      79  72  79 SE6       29.86R
PORT ISABEL    FAIR      80  74  81 SE7       29.86R
HARLINGEN      CLEAR     78  71  79 SE7       29.86R
*HEBBRONVILLE  CLEAR     83  69  63 CALM      29.87R
MCALLEN        CLEAR     83  71  67 SE10      29.85R
*WESLACO       PTCLDY    81  69  67 S8        29.85
FALFURRIAS     CLEAR     83  70  65 SE8       29.85R
EDINBURG       FAIR      81  67  61 SE10      29.85R
*ZAPATA        FAIR      89  60  37 SE7       29.83R
$$

TXZ213>215-236>238-242>244-246-247-251-254-255-160300-
CMAN STATIONS

STATION/POSITION TIME  TEMP    WIND        PRES    WAVE
                       AIR SEA DIR/SP/G            HT/PER
                 (UTC) (F)     (DEG/KT/KT) (MB)    (FT/S)
SABINE PASS      0130   79 78  220/  2/  2 1013.7
NORTH JETTY/GLS  0118   81 78  190/  8/ 10 1010.6
EAGLE POINT      0130   79 74  210/  8/ 10 1010.8
MORGANS POINT    0130   80 79  170/  7/  9 1011.2
PORT O`CONNOR    0130   81 82  170/ 10/ 12 1010.8
PORT ARANSAS     0200   81 81  130/ 13/ 14 1011.1
MALAQUITE BEACH  0130   81 82  120/ 14/ 16 1010.4
BAFFIN BAY       0130   81 81  120/ 10/ 13 1011.0
PORT ISABEL      0130   82 81  140/  9/ 10 1011.3
$$




USA.gov is the U.S. government's official web portal to all federal, state and local government web resources and services.